Hourly Data Report for September 13, 2017

All times are specified in Local Standard Time (LST). Add 1 hour to adjust for Daylight Saving Time where and when it is observed.

SUSSEX FOUR CORNERS
NEW BRUNSWICK

45°44'30.048" N
65°31'44.039" W
47.00 m
8105210
71656
ASF

Download Data

Hourly Data (September 2017)
Hourly Data Report for September 13, 2017
Temp Definition
°C
Dew Point Temp Definition
°C
Rel Hum Definition
%
Wind Dir Definition
10's deg

Wind Spd Definition
km/h
Visibility Definition
km
Stn Press Definition
kPa
Hmdx Definition


Wind Chill Definition


Weather Definition


TIME
00:00 12.6 12.0 96 21 3   99.94     LegendNANA
01:00 12.9 11.2 89 24 9   99.96     LegendNANA
02:00 13.5 11.2 86 30 5   99.97     LegendNANA
03:00 11.4 10.5 94 20 4   99.99     LegendNANA
04:00 11.2 10.5 96 22 4   100.00     LegendNANA
05:00 10.4 9.7 96 8 2   100.01     LegendNANA
06:00 9.1 8.7 98 30 2   100.04     LegendNANA
07:00 10.7 10.5 98 0 1   100.13     LegendNANA
08:00 14.3 12.5 89 17 3   100.15     LegendNANA
09:00 18.0 14.4 79 22 8   100.18     LegendNANA
10:00 21.1 15.2 69 19 8   100.15 25   LegendNANA
11:00 23.2 15.6 63 19 13   100.10 28   LegendNANA
12:00 24.5 14.1 52 21 15   100.07 28   LegendNANA
13:00 25.4 12.0 43 24 16   100.05 28   LegendNANA
14:00 25.9 11.8 41 26 14   100.01 28   LegendNANA
15:00 26.0 11.4 40 24 15   99.98 28   LegendNANA
16:00 26.1 10.4 37 25 11   99.97 28   LegendNANA
17:00 25.1 10.6 40 25 13   99.97 27   LegendNANA
18:00 22.9 11.7 49 24 9   99.98 25   LegendNANA
19:00 18.8 14.3 75 20 13   100.04     LegendNANA
20:00 17.3 13.8 80 21 15   100.08     LegendNANA
21:00 16.6 13.4 82 22 12   100.11     LegendNANA
22:00 15.9 13.3 85 23 12   100.10     LegendNANA
23:00 14.9 12.9 88 25 9   100.10     LegendNANA

Notes on Data Quality.

Legend

  • E = Estimated
  • M = Missing
  • NA = Not Available
  • ‡ = Partner data that is not subject to review by the National Climate Archives
Date modified: